Weather History for Greensboro, NC

Change the Weather History Date:

Monday, September 2, 2013

  Actual Average Record
Temperature  
Mean Temperature 77 °F 75 °F  
Max Temperature 86 °F 84 °F 101 °F (1921)
Min Temperature 68 °F 65 °F 48 °F (1948)
Degree Days  
Heating Degree Days 0 0  
Month to date heating degree days 0 0  
Since 1 July heating degree days 2 1  
Cooling Degree Days 12 10  
Month to date cooling degree days 24 20  
Year to date cooling degree days 1183 1282  
Growing Degree Days 27 (Base 50)    
Moisture  
Dew Point 69 °F    
Average Humidity 81    
Maximum Humidity 100    
Minimum Humidity 61    
Precipitation  
Precipitation 0.00 in 0.15 in 1.01 in (1945)
Month to date precipitation 0.99 0.30  
Year to date precipitation 39.38 29.09  
Sea Level Pressure  
Sea Level Pressure 29.85 in    
Wind  
Wind Speed 6 mph (SW)    
Max Wind Speed 10 mph    
Max Gust Speed 14 mph    
Visibility 7 miles    
Events Fog    
T = Trace of Precipitation, MM = Missing Value Source: NWS Daily Summary

Daily Weather History Graph

Daily Weather History Graph

Search for Another Location

Airport:

Trip Planner

Search our weather history database for the weather conditions in past years. The results will help you decide how hot, cold, wet, or windy it might be!

Date:

Astronomy

Sep. 02, 2013 Rise Set
Actual Time 6:52 AM EDT 7:45 PM EDT
Civil Twilight 6:26 AM EDT 8:11 PM EDT
Nautical Twilight 5:55 AM EDT 8:42 PM EDT
Astronomical Twilight 5:23 AM EDT 9:14 PM EDT
Moon 4:10 AM EDT (9/2) 5:55 PM EDT (9/2)
Length of Visible Light 13h 45m
Length of Day
12h 53m
Waning Crescent, 8% of the Moon is Illuminated
Sep 2
Waning Crescent
Sep 5
New
Sep 12
First Quarter
Sep 19
Full
Sep 26
Last Quarter

Hourly Weather History & Observations

Time (EDT) Temp. Heat Index Dew Point Humidity Pressure Visibility Wind Dir Wind Speed Gust Speed Precip Events Conditions
12:54 AM 69.1 °F - 66.9 °F 93% 29.86 in 10.0 mi SW 8.1 mph - N/A   Scattered Clouds
1:54 AM 68.0 °F - 66.9 °F 96% 29.84 in 10.0 mi SW 4.6 mph - N/A   Mostly Cloudy
2:54 AM 68.0 °F - 66.9 °F 96% 29.83 in 6.0 mi SSW 8.1 mph - N/A   Mostly Cloudy
3:18 AM 68.0 °F - 66.2 °F 94% 29.87 in 6.0 mi SW 6.9 mph - N/A   Mostly Cloudy
3:54 AM 68.0 °F - 66.9 °F 96% 29.84 in 5.0 mi WSW 6.9 mph - N/A   Mostly Cloudy
4:54 AM 68.0 °F - 66.9 °F 96% 29.84 in 5.0 mi West 6.9 mph - N/A   Mostly Cloudy
5:54 AM 68.0 °F - 66.9 °F 96% 29.84 in 4.0 mi WSW 4.6 mph - N/A   Overcast
6:42 AM 68.0 °F - 66.2 °F 94% 29.87 in 0.2 mi WSW 4.6 mph - N/A   Overcast
6:54 AM 68.0 °F - 66.9 °F 96% 29.85 in 0.2 mi SSW 5.8 mph - N/A   Mist
7:54 AM 68.0 °F - 68.0 °F 100% 29.86 in 0.2 mi WSW 4.6 mph - N/A Fog Fog
8:54 AM 69.1 °F - 68.0 °F 96% 29.87 in 1.0 mi WSW 3.5 mph - N/A   Overcast
9:16 AM 69.8 °F - 69.8 °F 100% 29.91 in 1.5 mi WNW 5.8 mph - N/A   Overcast
9:32 AM 71.6 °F - 69.8 °F 94% 29.92 in 2.0 mi West 3.5 mph - N/A   Overcast
9:39 AM 71.6 °F - 69.8 °F 94% 29.92 in 5.0 mi WNW 5.8 mph - N/A   Mostly Cloudy
9:54 AM 72.0 °F - 70.0 °F 93% 29.89 in 5.0 mi Variable 3.5 mph - N/A   Mostly Cloudy
10:54 AM 73.9 °F - 70.0 °F 87% 29.89 in 10.0 mi Calm Calm - N/A   Mostly Cloudy
11:54 AM 81.0 °F 84.4 °F 70.0 °F 69% 29.89 in 10.0 mi Variable 3.5 mph - N/A   Mostly Cloudy
12:54 PM 84.0 °F 87.8 °F 69.1 °F 61% 29.88 in 10.0 mi West 8.1 mph - N/A   Mostly Cloudy
1:54 PM 84.0 °F 88.4 °F 70.0 °F 63% 29.86 in 10.0 mi SW 5.8 mph - N/A   Mostly Cloudy
2:54 PM 84.9 °F 88.8 °F 69.1 °F 59% 29.84 in 10.0 mi WSW 9.2 mph - N/A   Mostly Cloudy
3:54 PM 84.9 °F 88.8 °F 69.1 °F 59% 29.82 in 10.0 mi WSW 8.1 mph - N/A   Mostly Cloudy
4:54 PM 82.9 °F 85.8 °F 68.0 °F 60% 29.81 in 10.0 mi SW 6.9 mph - N/A   Mostly Cloudy
5:54 PM 82.0 °F 85.5 °F 69.1 °F 65% 29.81 in 10.0 mi WSW 8.1 mph - N/A   Mostly Cloudy
6:54 PM 80.1 °F 82.9 °F 69.1 °F 69% 29.81 in 10.0 mi SSW 5.8 mph - N/A   Mostly Cloudy
7:54 PM 78.1 °F - 69.1 °F 74% 29.82 in 10.0 mi SSW 4.6 mph - N/A   Mostly Cloudy
8:54 PM 77.0 °F - 70.0 °F 79% 29.84 in 10.0 mi SSW 4.6 mph - N/A   Mostly Cloudy
9:54 PM 75.0 °F - 70.0 °F 84% 29.84 in 10.0 mi SSW 4.6 mph - N/A   Mostly Cloudy
10:54 PM 73.9 °F - 70.0 °F 87% 29.84 in 9.0 mi SSW 4.6 mph - N/A   Mostly Cloudy
11:54 PM 73.9 °F - 70.0 °F 87% 29.83 in 9.0 mi SSW 4.6 mph - N/A   Mostly Cloudy